Regional Weather Roundup
Issued by NWS

Home | Current Version | Previous Version | Graphics & Text | Print | Product List | Glossary On
Versions: 1 2 3 4 5 6 7 8 9 10 11 12 13 14 15 16 17 18 19 20 21 22 23 24 25 26 27 28 29 30 31 32 33 34 35 36 37 38 39 40 41 42 43 44 45 46 47 48 49 50
000
ASUS43 KBIS 300610
RWRND
NORTH DAKOTA REGIONAL WEATHER ROUNDUP
NATIONAL WEATHER SERVICE EASTERN NORTH DAKOTA/GRAND FORKS ND
100 AM CDT TUE MAY 30 2017

  NOTE: "FAIR" INDICATES FEW OR NO CLOUDS BELOW 12,000 FEET WITH NO
  SIGNIFICANT WEATHER AND/OR OBSTRUCTIONS TO VISIBILITY.

NDZ001>003-009>011-017-300700-
...NORTHWEST NORTH DAKOTA...

CITY           SKY/WX    TMP DP  RH WIND       PRES   REMARKS
WILLISTON      FAIR      45  30  55 CALM      30.06S
6HR MIN TEMP:  45; 6HR MAX TEMP:  69;

MINOT          FAIR      47  38  71 W9        30.02R
MINOT AFB      FAIR      40  36  85 W6        30.01S
6HR MIN TEMP:  38; 6HR MAX TEMP:  61;

$$

NDZ018>021-031>035-040>046-300700-
...SOUTHWEST NORTH DAKOTA...

CITY           SKY/WX    TMP DP  RH WIND       PRES   REMARKS
BISMARCK       FAIR      43  36  76 S3        30.04R
DICKINSON      FAIR      39  29  67 W7        30.04S WCI  34
GARRISON         N/A     39  35  86 N6        30.02S WCI  35
HETTINGER      FAIR      36  29  75 W5        30.09R WCI  32
$$

NDZ004>008-012>016-024-026-027-054-300700-
...NORTHEAST NORTH DAKOTA...

CITY           SKY/WX    TMP DP  RH WIND       PRES   REMARKS
GRAND FORKS    CLOUDY    49  43  80 N13       29.91S
GRAND FORKS AF CLOUDY    47  41  80 N13G21    29.92S
DEVILS LAKE    FAIR      47  41  80 NW15G21   29.96S
$$

NDZ022-023-025-028>030-036>039-047>053-300700-
...SOUTHEAST NORTH DAKOTA...

CITY           SKY/WX    TMP DP  RH WIND       PRES   REMARKS
JAMESTOWN      MOCLDY    46  40  79 NW9       29.96S
FARGO          CLOUDY    50  44  80 N10       29.92S
WAHPETON       CLOUDY    52  41  66 NW7       29.92F
$$



USA.gov is the U.S. government's official web portal to all federal, state and local government web resources and services.